Regional Weather Roundup
Issued by NWS

Home | Current Version | Previous Version | Graphics & Text | Print | Product List | Glossary On
Versions: 1 2 3 4 5 6 7 8 9 10 11 12 13 14 15 16 17 18 19 20 21 22 23 24 25 26 27 28 29 30 31 32 33 34 35 36 37 38 39 40 41 42 43 44 45 46 47 48 49 50
000
ASUS43 KDTX 280201
RWRMI
MICHIGAN HOURLY REGIONAL WEATHER ROUNDUP
NATIONAL WEATHER SERVICE DETROIT/PONTIAC MI
1000 PM EDT WED MAY 27 2015

NOTE: "FAIR" INDICATES FEW OR NO CLOUDS BELOW 12,000 FEET WITH NO
SIGNIFICANT WEATHER AND/OR OBSTRUCTION TO VISIBILITY.

MIZ047>049-052>055-059>063-066>070-074>076-081>083-280300-
SOUTHEAST LOWER MICHIGAN

CITY           SKY/WX    TMP DP  RH WIND       PRES   REMARKS
ADRIAN         PTCLDY    68  59  73 W5        30.06R
ALMA           CLEAR     62  57  83 W3        30.06R
ANN ARBOR      CLOUDY    66  58  75 W5        30.05R
BAD AXE        PTCLDY    65  53  67 NW9       30.03R
CARO           CLEAR     65  56  73 NW7       30.04R
DETROIT CITY   MOCLDY    71  58  63 W10       30.03R
DETROIT        MOCLDY    70  59  68 SW7       30.04R
FLINT          PTCLDY    69  56  62 NW12      30.04R
GROSSE ILE     MOCLDY    70  64  83 CALM      30.03R
HILLSDALE      CLEAR     66  59  78 W8        30.08R
HOWELL         CLOUDY    66  57  73 W6        30.06R

CITY           SKY/WX    TMP DP  RH WIND       PRES   REMARKS
JACKSON        CLOUDY    66  57  72 W7        30.07R
LAMBERTVILLE   CLOUDY    70  64  83 SW3       30.06R
LANSING        CLEAR     63  56  78 W7        30.08R
LAPEER         DRIZZLE   67  56  67 W7        30.03R
MASON          CLOUDY    64  56  73 NW8       30.07R
MONROE         CLOUDY    68  63  83 SW6       30.03R
MT. CLEMENS    MOCLDY    69  61  75 W7        30.01R
PONTIAC        MOCLDY    67  56  67 W9        30.04R
PORT HOPE        N/A     59  54  83 NW10      30.01R
PORT HURON     MOCLDY    64  61  88 W3        30.02R
TRI CITIES     CLEAR     64  56  75 W7        30.05R
MIDLAND        FAIR      62  55  78 CALM      30.04R
TROY           PTCLDY    71  58  64 W6        30.06R
SAGINAW HB     CLEAR     64  55  72 W6        30.04R
$$
MIZ043>046-050>051-056>058-064>065-071>073-077>080-280300-
SOUTHWEST LOWER MICHIGAN

CITY           SKY/WX    TMP DP  RH WIND       PRES   REMARKS
BATTLE CREEK   CLEAR     64  55  72 NW8       30.09R
BENTON HARBOR  PTCLDY    53  53 100 CALM      30.10R
BIG RAPIDS     PTCLDY    61  55  82 CALM      30.06S
COLDWATER      CLEAR     64  55  75 W5        30.08R
FREMONT        FAIR      59  55  89 CALM      30.07R
HOLLAND        CLEAR     58  55  90 W6        30.10R
GRAND RAPIDS   PTCLDY    61  56  83 W7        30.08R
IONIA          FAIR      63  56  78 W7        30.07R
KALAMAZOO      CLEAR     63  54  72 NW6       30.10R
LUDINGTON      PTCLDY    58  54  85 SW6       30.07R
MARSHALL       CLOUDY    66  56  69 W7        30.08R
MOUNT PLEASANT CLEAR     63  55  74 CALM      30.05R
MUSKEGON       PTCLDY    53  51  93 SW5       30.08R
SOUTH HAVEN    CLOUDY    56  55  95 CALM      30.10R FOG
$$
MIZ016>042-280300-
NORTHERN LOWER MICHIGAN

CITY           SKY/WX    TMP DP  RH WIND       PRES   REMARKS
ALPENA         MOCLDY    63  52  67 VRB7      30.03R
BEAVER ISLAND  CLOUDY    58  51  78 S6        30.01R
BELLAIRE       MOCLDY    60  57  91 CALM      30.02R
CADILLAC       CLEAR     60  55  85 S6        30.04S
CHARLEVOIX     CLOUDY    60  55  84 SE3       30.05R
FRANKFORT      MOCLDY    63  48  59 SW6       30.02R
GAYLORD        CLOUDY    60  58  92 SW5       30.05R
GRAYLING       CLOUDY    59  55  88 CALM      30.06R
HARBOR SPRINGS MOCLDY    51  51  97 NE3       30.03R
HOUGHTON LAKE  PTCLDY    58  54  86 CALM      30.05R
MANISTEE       PTCLDY    61  52  72 S8        30.02F
OSCODA         CLEAR     63  54  72 NW8       30.03R
PELLSTON       CLOUDY    58  53  84 CALM      30.03R
ROGERS CITY    CLOUDY    62  54  75 W5        30.05R
TRAVERSE CITY  PTCLDY    64  55  72 CALM      30.00R
$$
MIZ007>008-015-280300-
EASTERN UPPER MICHIGAN

CITY           SKY/WX    TMP DP  RH WIND       PRES   REMARKS
KINROSS        PTCLDY    55  55 100 CALM      30.00R
MACKINAC ISLAN PTCLDY    54  52  94 SW8       30.02R
NEWBERRY       PTCLDY    58  56  92 SW9       29.99R
S. S. MARIE    PTCLDY    51  49  92 CALM      30.00R
$$
MIZ004>006-011>014-085-280300-
CENTRAL UPPER MICHIGAN

CITY           SKY/WX    TMP DP  RH WIND       PRES   REMARKS
MANISTIQUE     MOCLDY    49  47  93 SE7       29.99R
ESCANABA       MOCLDY    61  55  82 CALM      29.97R THUNDER
MENOMINEE      CLOUDY    61  54  77 W6        29.99R
SAWYER-GWINN   PTCLDY    63  55  77 NE3       29.98R
$$
MIZ001>003-009>011-084-280300-
WESTERN UPPER MICHIGAN

CITY           SKY/WX    TMP DP  RH WIND       PRES   REMARKS
IRON MOUNTAIN  CLOUDY    66  58  75 SW3       29.97R
HOUGHTON       MOCLDY    59  48  67 NE8       29.98R
COPPER HARBOR    N/A     53  43  68 N6        30.00R
IRONWOOD       PTCLDY    59  57  94 E3        29.95R
$$

ABBREVIATIONS USED IN REMARKS
   TC - TEMPERATURE IN CELSIUS
  WCI - WIND CHILL INDEX
   HX - HEAT INDEX
  VSB - VISIBILITY



USA.gov is the U.S. government's official web portal to all federal, state and local government web resources and services.